Location: Nashville
(36.1660°N, 86.7840°W)
Time: 08:14:22
(UTC-05:00)

Vanguard 1 Rocket - Pass Details

Date: 22 January 2022
Orbit: 651 x 4224 km, 34.3° (Epoch: 21 May)

Event Time Altitude Azimuth Distance (km) Brightness Sun altitude
Rises 20:07:09 0° 275° (W) 4,653 12.0 -36.9°
Reaches altitude 10° 20:14:28 10° 235° (SW) 2,767 10.3 -38.4°
Maximum altitude 20:14:58 10° 230° (SW) 2,705 10.2 -38.5°
Drops below altitude 10° 20:15:27 10° 225° (SW) 2,659 10.2 -38.6°
Enters shadow 20:17:13 - 208° (SSW) 2,623 10.0 -39.0°
